Presure
197 201 192 202 211 205 204 184 187 196 119 211 212 216 117 157 200 261 191 183 119 200 204 195 211 201 69 202 208 234 218 221 217 224 216 185 198 202 201 171 112 201 176 212
183 190 163 181 180 193 196 196 196 195 142 178 221 225 265 194 258 271 277 234 251 274 274 255 235 233 184 215 119 113 234 229 195 222 215 222 205 103 205 205 213 199 217 121
196 199 207 203 194 190 200 195 179 221 222 217 271 234 148 254 281 265 256 293 297 303 307 280 272 272 246 185 229 231 132 211 229 198 233 225 217 213 222 219 162 170 154 134
199 204 184 200 198 199 212 207 222 208 214 224 254 250 214 279 290 288 297 407 430 433 446 457 437 302 299 296 232 239 245 233 217 108 226 119 234 98 141 189 131 133 239 200
175 208 211 179 201 196 217 203 198 218 250 247 249 270 286 177 224 421 357 355 164 349 362 382 396 433 443 331 89 260 243 154 79 230 231 194 198 202 90 189 186 233 202 101
199 198 196 210 180 219 179 208 210 227 232 261 265 272 205 390 388 336 328 278 281 331 317 329 384 421 414 241 474 313 185 143 192 247 115 224 167 190 183 232 186 174 196 219
181 203 204 212 181 206 199 209 220 243 256 273 268 214 396 365 336 316 324 308 127 71 320 76 168 198 88 86 340 505 150 197 245 164 184 243 183 169 204 217 135 319 182 188
219 199 211 200 207 192 205 220 250 235 263 268 268 378 338 357 287 305 291 299 295 291 291 310 81 90 144 434 452 484 509 177 269 277 260 269 192 177 166 174 173 148 157 181
225 217 190 204 211 198 260 258 249 257 260 270 320 354 337 319 305 270 259 268 292 254 264 301 116 125 96 377 414 383 385 459 290 258 272 242 196 219 141 177 180 177 171 205
211 210 217 220 202 229 257 242 251 249 263 269 350 334 318 280 283 264 287 217 273 177 284 245 286 314 333 334 371 360 356 341 410 282 143 156 190 222 214 189 173 172 187 187
225 230 238 203 208 251 241 245 242 258 257 361 345 318 331 283 267 252 297 203 277 271 264 274 262 283 287 283 333 329 321 324 321 319 272 264 241 191 205 186 186 181 192 178
230 228 212 208 253 238 247 245 255 276 350 331 329 305 329 280 247 274 253 279 249 255 263 250 268 278 283 282 299 320 305 304 319 308 317 260 256 246 188 188 225 237 217 242
228 235 219 251 240 243 240 244 254 260 354 305 299 307 286 268 249 263 269 260 262 253 241 262 247 257 259 266 285 292 307 301 291 297 290 277 277 252 199 244 214 211 221 227
232 228 244 243 239 236 239 253 265 311 312 285 312 305 269 240 256 263 245 271 257 250 257 251 226 252 252 253 250 273 282 292 297 279 272 272 265 270 277 290 236 181 185 180
244 238 239 230 227 232 251 254 323 305 296 279 278 293 239 252 269 250 242 269 242 250 235 239 213 245 215 249 239 243 253 256 279 286 256 251 273 274 280 277 264 280 261 271
239 231 228 222 220 238 243 247 300 288 280 272 259 272 244 234 242 243 247 256 243 257 225 254 242 246 234 231 237 240 242 250 250 229 236 241 240 241 260 255 248 246 235 252
228 224 223 215 221 234 254 346 287 277 278 269 273 277 255 252 247 237 253 249 250 258 230 241 240 246 239 236 230 221 222 241 249 235 233 232 225 234 237 238 239 238 251 239
220 222 218 213 223 240 242 324 286 273 270 263 256 246 264 262 254 243 251 231 252 230 258 237 237 228 234 239 226 228 237 226 231 239 230 227 230 226 232 238 245 244 249 241
219 222 216 224 221 242 288 316 295 280 265 276 261 252 252 265 274 252 254 237 251 227 218 239 232 230 225 237 228 224 217 220 220 239 238 246 232 239 237 229 253 232 256 230
221 216 226 234 241 239 294 317 295 276 268 257 259 257 249 252 249 266 249 236 250 234 232 241 235 236 230 241 236 226 232 232 236 234 226 244 243 248 254 255 240 232 246 199
217 221 232 232 237 255 291 281 300 282 269 259 255 254 245 254 247 260 256 257 245 239 242 229 238 234 230 223 229 225 221 221 224 228 234 244 230 225 247 235 237 260 242 237
214 226 225 239 236 262 288 283 315 276 285 260 253 250 250 249 244 251 241 263 258 249 230 233 232 224 227 237 228 225 226 226 227 224 225 225 225 236 230 232 242 251 246 253
218 229 235 233 251 297 284 283 313 297 274 266 265 253 248 251 250 222 230 237 245 259 255 251 223 229 234 223 218 212 216 213 214 219 226 229 228 229 235 225 227 239 237 236
226 228 245 237 263 287 286 354 332 302 285 268 256 258 251 248 252 253 239 242 234 232 249 236 254 253 225 223 207 227 221 223 237 228 224 238 221 217 223 235 220 234 241 238
237 241 241 258 292 295 289 354 333 302 289 273 263 254 252 249 250 251 258 236 233 233 235 231 225 235 240 235 240 244 229 224 231 239 228 229 232 237 242 237 241 235 235 239
237 234 251 286 289 298 360 357 324 314 286 278 268 263 250 248 246 246 249 249 254 249 223 229 241 254 224 231 242 230 232 243 238 212 227 223 221 218 220 226 222 242 241 242
Wind_Speed
70 71 69 72 72 76 77 81 81 84 31 89 89 90 52 70 90 92 87 81 59 94 98 96 106 105 18 91 99 98 94 91 88 84 79 52 69 71 74 69 49 62 54 57
74 74 71 75 70 75 78 81 86 85 65 75 88 86 88 79 94 90 92 93 95 97 99 102 105 108 81 105 46 39 99 98 81 90 83 79 75 35 75 69 74 67 71 65
75 75 78 76 76 77 80 79 76 86 86 89 86 79 45 92 100 90 93 100 101 100 101 104 107 108 110 72 109 104 53 90 97 75 89 83 69 61 72 73 45 50 51 61
74 78 74 75 75 76 79 79 82 82 83 84 90 81 76 89 91 92 90 47 37 38 40 42 54 108 108 100 99 112 112 103 87 39 80 30 78 31 44 27 43 55 72 56
75 81 83 65 77 75 83 75 78 85 88 88 91 90 91 66 68 27 39 27 63 33 31 28 34 41 49 103 24 112 115 70 23 94 91 64 37 18 28 56 49 76 72 44
75 73 73 79 67 79 67 79 81 89 86 85 83 82 53 40 28 33 33 27 21 27 43 45 27 28 38 31 46 107 79 43 78 99 48 68 57 25 41 53 57 61 74 84
67 74 76 79 65 76 78 80 86 86 85 79 76 57 30 30 25 26 22 27 21 10 19 19 16 27 28 30 32 43 46 79 111 54 67 74 66 59 33 39 53 42 81 87
85 73 81 76 77 74 79 83 82 84 81 80 75 33 35 21 28 15 22 7 14 23 24 23 26 37 30 11 17 34 38 61 105 105 99 94 67 67 67 67 84 52 45 80
84 79 72 77 76 78 76 73 77 78 79 73 52 28 19 17 17 23 32 30 4 35 34 25 27 34 42 13 7 22 27 65 100 94 99 79 74 69 55 80 94 97 72 94
72 75 77 79 76 77 70 75 74 78 73 66 30 26 15 22 17 26 16 18 27 20 9 14 19 32 27 25 6 13 22 39 72 101 53 57 80 74 76 97 83 83 113 98
85 86 86 72 73 70 72 71 73 70 62 32 24 17 19 17 20 21 12 33 13 6 15 10 6 19 25 15 5 12 21 32 50 80 95 92 81 93 89 93 104 95 121 87
84 83 73 72 63 70 64 68 70 65 32 26 15 15 17 25 20 26 26 11 27 32 10 10 22 22 26 14 9 13 19 24 37 51 53 93 90 89 92 96 90 94 101 91
80 77 74 61 64 58 61 67 64 56 25 26 19 13 22 25 18 29 26 23 6 10 12 22 10 14 12 18 14 7 15 29 39 46 50 62 72 99 93 97 102 101 99 83
70 67 58 52 52 55 60 65 62 36 25 22 12 13 23 19 23 26 21 13 17 8 13 13 17 16 11 9 6 7 12 22 42 46 49 54 58 63 68 62 80 82 90 77
52 52 43 47 52 58 60 59 29 31 21 19 14 18 28 22 27 23 18 16 19 16 20 14 22 17 22 10 10 6 10 14 20 25 28 32 50 56 60 65 67 52 49 48
40 42 42 47 54 56 56 54 29 31 21 21 14 28 16 17 18 20 22 21 20 20 15 21 21 20 18 15 14 15 14 18 32 40 38 32 33 35 38 38 45 52 63 59
38 40 42 50 53 52 53 19 30 31 24 22 20 25 27 28 27 17 27 23 18 18 20 19 23 21 24 19 25 30 26 18 28 40 41 44 49 48 49 56 59 64 65 67
38 41 43 49 50 52 49 25 31 33 31 26 27 24 26 30 33 25 27 20 24 21 25 25 25 26 27 26 30 29 23 31 30 31 44 47 51 56 53 56 62 65 71 72
41 42 45 46 45 48 41 29 36 37 35 29 31 29 27 30 37 36 33 26 28 25 21 28 30 30 29 31 33 34 36 36 38 36 41 53 55 55 57 54 61 61 78 67
42 42 44 46 47 45 36 32 35 39 41 37 34 35 31 30 30 39 36 29 36 32 31 36 36 37 34 37 41 41 40 41 40 41 44 42 46 51 53 57 61 63 69 61
41 43 44 44 45 48 36 32 38 39 43 42 40 37 34 33 31 35 37 44 39 39 39 34 40 37 37 34 39 41 42 42 44 45 46 45 51 55 49 57 60 55 70 73
40 42 41 46 44 49 38 33 41 39 47 45 43 40 39 38 33 35 31 40 46 46 39 40 40 38 39 42 42 43 47 49 50 50 50 50 52 50 53 55 54 56 63 62
41 44 46 42 48 45 37 35 38 47 48 45 51 49 45 45 43 40 35 32 37 49 49 52 42 43 48 44 44 45 48 46 48 48 51 54 56 58 60 61 61 62 63 68
45 44 50 44 51 45 38 35 44 49 53 53 48 50 48 46 48 48 38 39 38 38 45 42 53 56 48 48 51 54 51 53 62 63 61 66 61 61 64 69 63 67 72 72
51 51 47 53 53 44 37 37 42 49 54 56 57 53 53 49 48 48 52 47 44 44 44 48 47 48 52 51 55 64 62 60 65 69 66 67 68 70 78 76 77 76 76 80
52 46 53 58 51 44 26 33 43 48 53 57 59 61 53 52 50 49 49 49 50 50 53 51 51 54 55 58 60 60 62 68 73 63 71 70 69 70 71 73 74 83 81 82
Wind_Direction
259 261 262 267 267 266 266 264 267 266 251 268 269 270 244 274 273 273 271 266 260 267 267 266 265 270 260 268 267 261 264 260 261 256 258 261 267 262 264 267 271 278 264 280
260 258 264 264 265 264 264 266 269 272 273 274 274 277 282 271 277 277 276 268 267 265 260 255 256 256 264 266 259 264 257 255 255 254 258 251 262 243 266 279 276 277 284 263
264 264 266 266 267 267 269 269 275 281 281 278 288 285 284 282 282 280 276 275 273 269 264 259 256 253 252 261 257 255 256 255 252 253 250 256 259 275 269 273 262 262 250 244
265 269 270 268 267 271 276 276 283 281 282 287 290 286 285 289 287 286 281 281 280 282 281 275 264 253 251 245 245 249 247 251 255 257 255 245 252 237 272 299 265 250 271 282
269 270 273 274 275 276 280 279 279 286 290 292 294 293 294 275 282 282 285 280 267 284 299 284 280 266 255 245 272 237 243 248 264 248 250 251 232 234 270 261 303 282 285 266
265 267 272 274 274 280 276 284 286 291 293 293 293 297 296 284 283 283 278 267 276 273 282 287 303 282 259 254 251 235 242 233 243 246 262 238 249 215 242 270 295 276 277 276
262 271 274 276 269 280 283 286 290 293 294 293 298 294 283 292 279 287 275 277 272 249 2 258 279 296 282 287 252 235 235 238 242 247 251 245 231 234 201 219 258 244 268 263
269 270 275 276 278 281 283 289 295 293 295 298 302 299 300 284 292 255 275 270 315 286 292 355 275 280 282 267 242 226 224 236 231 234 240 239 202 222 229 189 203 242 255 252
273 273 273 275 278 280 293 296 296 294 297 300 301 295 302 251 243 280 302 307 93 305 301 21 278 281 277 0 204 204 204 217 226 229 233 236 197 194 257 224 212 228 258 246
269 276 279 282 278 287 292 294 292 293 300 305 286 285 304 276 222 284 257 264 276 271 56 12 42 47 36 30 127 179 184 210 209 224 242 246 212 214 213 203 238 249 235 245
275 279 283 277 280 289 292 292 291 297 302 288 276 275 295 223 241 290 216 279 286 254 290 26 291 66 54 65 25 167 193 204 213 220 225 228 230 203 228 220 218 234 228 250
273 277 276 280 286 289 291 291 293 301 294 293 276 259 272 204 272 245 292 214 297 284 133 304 70 57 60 49 53 140 191 200 184 212 215 227 230 233 224 226 237 240 235 244
271 275 278 281 285 287 289 289 297 304 278 284 273 242 197 218 263 259 246 250 215 226 284 109 205 96 77 55 53 121 162 174 181 191 200 213 223 231 226 242 224 226 236 245
268 273 275 280 283 287 289 295 300 294 289 280 274 267 214 254 254 241 285 253 201 231 160 158 249 111 104 98 88 85 147 175 194 202 212 216 219 229 237 238 239 241 239 246
261 268 273 278 282 287 294 297 278 286 284 277 263 205 248 235 226 259 277 222 253 242 240 250 241 165 229 125 153 182 157 167 169 172 195 213 232 242 246 245 249 251 248 244
259 266 272 276 280 291 295 299 278 283 277 276 262 212 255 244 258 266 275 229 247 199 248 196 186 179 205 222 178 190 185 192 174 206 200 205 213 230 217 217 226 223 233 224
261 267 273 275 285 292 298 246 275 277 266 265 257 229 250 242 253 253 252 240 236 219 232 219 199 185 181 190 202 230 222 188 198 209 216 213 223 224 225 228 225 226 226 225
262 267 269 275 284 295 295 243 259 263 264 262 257 252 254 238 244 249 245 249 230 228 204 218 214 224 206 200 218 226 219 224 222 220 225 230 230 235 234 234 236 235 226 229
261 267 272 279 287 296 309 241 237 239 260 230 247 254 253 253 241 243 240 241 224 234 235 217 224 224 229 212 221 231 238 240 240 228 231 228 235 238 239 244 242 240 229 247
267 270 281 287 295 298 301 245 245 244 244 260 257 254 253 248 248 242 245 242 228 233 234 224 224 226 227 219 223 231 229 233 239 239 239 241 236 240 242 244 246 249 243 244
266 274 286 290 295 308 301 285 239 242 240 250 256 254 252 256 249 242 248 241 239 240 235 237 230 236 236 237 226 233 243 246 246 250 250 251 243 246 248 246 246 247 245 249
272 280 285 293 296 307 299 283 232 247 234 244 251 255 256 255 251 252 252 243 243 240 244 244 243 246 242 239 242 245 242 245 248 249 249 247 248 251 250 253 252 250 245 243
277 284 290 293 304 309 295 280 238 231 239 242 237 247 253 255 256 234 237 247 254 249 251 246 244 250 246 250 248 248 244 250 250 256 255 254 255 257 256 255 260 256 256 254
282 287 293 295 306 306 294 242 229 230 233 239 248 245 249 252 254 254 245 249 241 240 253 251 251 246 250 251 242 256 252 256 252 254 256 257 255 255 259 262 256 266 263 264
288 293 297 305 309 304 294 234 231 228 229 235 239 247 248 252 256 257 257 243 242 242 246 247 243 253 258 254 257 252 254 256 261 258 257 259 259 261 261 262 260 261 263 264
291 296 304 310 308 304 258 234 230 228 229 232 238 242 249 252 253 255 259 259 262 258 247 246 256 258 247 253 259 251 253 257 256 257 259 258 258 257 258 258 259 265 262 262